{"data":{"norad_id":64002,"epoch":"2026-09-18T12:42:18.819072Z","epoch_age_seconds":313803,"freshness":"STALE","line1":"1 64002U 25101J   26261.52938448  .00001686  00000+0  70733-4 0  9995","line2":"2 64002  43.0000 349.2489 0001173 262.7652  97.3067 15.27593063 76547","mean_motion":15.27593063,"eccentricity":0.0001173,"inclination_deg":43,"raan_deg":349.2489,"arg_perigee_deg":262.7652,"mean_anomaly_deg":97.3067,"bstar":7.0733e-5,"rev_number":7654,"period_min":94.265942604637,"perigee_km":482.20516845613,"apogee_km":483.81479353788,"semimajor_km":6861.146980997,"source":"CELESTRAK","updated_at":"2026-09-21T09:00:35.181344Z"}}